GEFSGL_prec_meanprecacc_198.txt.gz
Total_Precipitation_Accumulation
0.74 0.77 0.89 0.99 0.99 0.98 0.98 0.95 0.99 1.01 1.03 1.07 1.09 1.10 1.10 1.16 1.34 1.58 1.53 1.48 1.50 1.56 1.65 1.77 1.79 1.88 1.87 1.69 1.62 1.58 1.63 1.75 1.58 1.33 1.29 1.23 1.10 0.98 0.98 0.93 0.88 0.88 0.85
0.51 0.58 0.71 0.86 0.87 0.86 0.88 1.00 1.05 1.02 0.95 0.88 0.92 0.98 0.98 1.09 1.31 1.62 1.75 1.75 1.75 1.67 1.74 1.96 1.97 1.94 1.85 1.72 1.73 1.65 1.61 1.76 1.68 1.51 1.48 1.38 1.29 1.14 1.07 1.02 0.88 0.85 0.88
0.40 0.47 0.58 0.73 0.84 0.89 0.94 1.00 1.06 1.06 1.00 0.98 1.00 1.01 1.09 1.17 1.23 1.42 1.60 1.68 1.71 1.68 1.80 1.86 1.86 1.92 1.83 1.77 1.69 1.65 1.62 1.76 1.87 1.74 1.71 1.69 1.56 1.39 1.29 1.16 1.02 1.00 0.86
0.39 0.48 0.58 0.66 0.80 0.93 0.99 1.04 1.07 1.11 1.10 1.11 1.12 1.16 1.23 1.27 1.27 1.36 1.49 1.59 1.64 1.69 1.78 1.85 1.87 1.86 1.91 1.99 1.87 1.83 1.87 1.94 2.01 1.97 1.90 1.99 1.91 1.70 1.52 1.34 1.17 1.07 0.97
0.43 0.51 0.58 0.67 0.73 0.83 0.98 1.07 1.18 1.23 1.17 1.20 1.30 1.32 1.31 1.25 1.19 1.39 1.53 1.53 1.64 1.72 1.74 1.70 1.76 1.93 2.01 2.03 1.88 1.88 1.99 1.98 1.95 1.97 1.94 2.03 2.04 1.90 1.60 1.34 1.25 1.21 1.13
0.60 0.64 0.68 0.75 0.85 0.89 0.96 1.01 1.15 1.23 1.28 1.37 1.43 1.45 1.39 1.21 1.39 1.52 1.53 1.54 1.62 1.67 1.68 1.61 1.54 1.57 1.67 1.76 1.72 1.65 1.69 1.76 1.82 1.84 1.86 1.91 1.96 1.86 1.68 1.49 1.37 1.27 1.22
0.74 0.86 0.92 0.97 1.07 1.09 1.12 1.12 1.16 1.30 1.40 1.43 1.43 1.45 1.43 1.48 1.52 1.39 1.33 1.24 1.30 1.37 1.38 1.34 1.17 1.10 1.32 1.40 1.54 1.53 1.43 1.40 1.43 1.56 1.68 1.71 1.84 1.89 1.85 1.66 1.59 1.49 1.32
1.02 1.14 1.25 1.31 1.38 1.45 1.51 1.48 1.49 1.53 1.62 1.61 1.53 1.54 1.62 1.63 1.60 1.38 1.28 1.15 1.14 1.16 1.16 1.11 1.11 1.10 1.15 1.26 1.32 1.33 1.29 1.25 1.24 1.26 1.36 1.55 1.72 1.88 1.88 1.79 1.74 1.62 1.43
1.34 1.45 1.56 1.62 1.65 1.67 1.67 1.72 1.78 1.87 1.88 1.88 1.83 1.87 1.89 1.93 1.87 1.58 1.45 1.27 1.22 1.17 1.19 1.23 1.23 1.13 1.19 1.15 1.14 1.16 1.17 1.23 1.23 1.23 1.25 1.43 1.61 1.73 1.86 1.82 1.75 1.65 1.48
1.41 1.52 1.69 1.82 1.89 1.85 1.86 1.97 2.10 2.22 2.19 2.18 2.20 2.20 2.12 2.08 2.04 1.68 1.47 1.28 1.31 1.28 1.33 1.28 1.21 1.08 1.04 0.98 0.99 1.07 1.05 1.06 1.15 1.18 1.19 1.29 1.42 1.55 1.70 1.67 1.58 1.59 1.45
1.66 1.69 1.76 1.86 1.97 1.97 2.02 2.07 2.17 2.28 2.28 2.23 2.14 2.07 2.00 2.02 1.99 1.71 1.52 1.34 1.37 1.40 1.31 1.26 1.21 1.12 0.96 0.91 0.86 0.89 0.92 0.98 1.04 1.09 1.19 1.30 1.44 1.56 1.58 1.57 1.56 1.46 1.39
1.92 1.98 1.96 1.99 1.95 1.89 2.03 2.13 2.21 2.32 2.25 2.19 2.20 2.07 1.97 1.95 1.82 1.63 1.47 1.38 1.46 1.52 1.47 1.37 1.30 1.17 0.95 0.89 0.80 0.81 0.84 0.83 0.94 1.04 1.10 1.20 1.32 1.46 1.56 1.62 1.63 1.50 1.32
1.82 1.86 1.92 1.92 1.94 1.95 2.03 2.11 2.23 2.25 2.20 2.13 2.13 2.11 2.04 1.95 1.89 1.70 1.46 1.34 1.35 1.38 1.49 1.56 1.40 1.24 1.06 0.93 0.92 0.89 0.82 0.77 0.91 1.02 1.02 1.06 1.13 1.27 1.53 1.74 1.83 1.76 1.48
1.49 1.52 1.54 1.63 1.71 1.86 2.04 2.07 2.14 2.21 2.23 2.21 2.16 2.11 2.07 2.02 2.01 1.83 1.61 1.42 1.40 1.44 1.51 1.56 1.43 1.31 1.14 0.99 0.96 0.87 0.77 0.76 0.83 0.93 1.01 1.07 1.18 1.27 1.40 1.57 1.75 1.78 1.61
1.30 1.33 1.40 1.51 1.62 1.78 1.97 2.08 2.00 2.01 2.14 2.08 1.97 1.88 1.82 1.78 1.85 1.74 1.54 1.45 1.44 1.52 1.58 1.65 1.59 1.47 1.36 1.22 1.12 1.05 1.00 0.95 0.90 0.91 1.03 1.09 1.14 1.15 1.21 1.34 1.55 1.64 1.51
1.21 1.22 1.25 1.28 1.38 1.49 1.63 1.71 1.65 1.46 1.50 1.43 1.30 1.18 1.15 1.18 1.25 1.22 1.14 1.09 1.14 1.27 1.38 1.55 1.54 1.44 1.36 1.32 1.28 1.21 1.15 1.07 1.01 1.00 1.02 1.06 1.07 1.10 1.16 1.25 1.35 1.44 1.40
1.17 1.12 1.13 1.15 1.22 1.26 1.31 1.40 1.44 1.30 1.11 1.02 0.89 0.75 0.69 0.73 0.83 0.90 0.93 0.92 0.95 0.99 1.09 1.27 1.28 1.24 1.22 1.24 1.21 1.12 1.04 1.04 1.06 1.03 0.98 1.02 1.08 1.10 1.14 1.21 1.27 1.36 1.40
1.37 1.28 1.16 1.13 1.14 1.14 1.17 1.22 1.29 1.33 1.23 1.02 0.79 0.60 0.52 0.54 0.64 0.79 0.90 0.86 0.88 0.86 0.91 1.05 1.10 1.11 1.13 1.18 1.17 1.15 1.11 1.12 1.13 1.09 1.07 1.09 1.16 1.20 1.19 1.21 1.29 1.31 1.35
1.27 1.27 1.18 1.12 1.13 1.14 1.15 1.19 1.26 1.28 1.32 1.26 1.01 0.71 0.56 0.55 0.63 0.79 0.86 0.81 0.89 0.91 0.94 1.00 1.05 1.06 1.09 1.16 1.17 1.17 1.17 1.18 1.17 1.17 1.18 1.19 1.25 1.31 1.22 1.16 1.21 1.26 1.22
1.00 0.99 0.92 0.94 0.97 1.02 1.06 1.09 1.12 1.18 1.22 1.22 1.10 0.84 0.58 0.52 0.60 0.80 0.88 0.93 0.99 1.00 1.01 1.01 1.06 1.08 1.09 1.10 1.13 1.13 1.15 1.18 1.18 1.18 1.24 1.27 1.27 1.27 1.19 1.16 1.15 1.20 1.15
0.83 0.77 0.67 0.74 0.85 0.90 0.95 0.98 0.98 1.02 1.07 1.08 0.99 0.69 0.48 0.47 0.62 0.78 0.92 1.01 1.01 1.02 1.02 1.03 1.04 1.01 1.01 1.03 1.06 1.07 1.14 1.18 1.17 1.17 1.21 1.26 1.26 1.23 1.18 1.16 1.15 1.16 1.19
0.82 0.79 0.64 0.65 0.78 0.82 0.83 0.92 0.93 0.93 0.96 0.97 0.88 0.64 0.53 0.55 0.69 0.83 0.99 1.04 1.00 0.98 0.95 0.97 0.97 0.95 0.92 0.95 1.02 1.09 1.15 1.16 1.15 1.13 1.16 1.19 1.20 1.18 1.15 1.15 1.17 1.21 1.24
0.73 0.79 0.67 0.60 0.68 0.67 0.73 0.91 0.94 0.91 0.93 0.93 0.80 0.69 0.68 0.77 0.87 0.97 1.06 1.06 0.99 0.96 0.95 0.94 0.92 0.88 0.82 0.82 0.86 0.93 1.05 1.10 1.05 1.03 1.08 1.08 1.09 1.07 1.04 1.02 1.06 1.13 1.17
0.58 0.67 0.61 0.54 0.58 0.67 0.77 0.89 0.94 0.91 0.92 0.93 0.83 0.73 0.74 0.83 0.90 0.96 1.01 0.98 0.91 0.92 0.92 0.88 0.81 0.76 0.74 0.81 0.84 0.80 0.79 0.79 0.78 0.82 0.89 0.93 0.98 1.02 0.99 0.97 1.01 1.05 1.12
0.56 0.64 0.57 0.48 0.49 0.58 0.72 0.83 0.88 0.88 0.89 0.87 0.79 0.72 0.73 0.79 0.85 0.84 0.81 0.79 0.77 0.77 0.75 0.73 0.74 0.73 0.68 0.61 0.61 0.60 0.60 0.56 0.53 0.57 0.69 0.80 0.84 0.93 0.98 1.01 1.06 1.13 1.16
0.49 0.56 0.54 0.45 0.42 0.50 0.64 0.74 0.82 0.86 0.89 0.86 0.81 0.78 0.78 0.80 0.75 0.71 0.70 0.69 0.68 0.68 0.65 0.63 0.63 0.59 0.57 0.52 0.49 0.48 0.46 0.42 0.40 0.44 0.50 0.61 0.72 0.84 0.91 0.94 0.96 1.05 1.11

GEFSGL_prec_meanprecacc_204.txt.gz
Total_Precipitation_Accumulation
0.76 0.79 0.91 1.00 1.00 0.99 0.99 0.96 1.01 1.02 1.05 1.09 1.11 1.12 1.11 1.17 1.35 1.60 1.55 1.50 1.53 1.59 1.68 1.79 1.82 1.92 1.92 1.74 1.67 1.63 1.67 1.79 1.62 1.38 1.34 1.29 1.15 1.03 1.03 0.97 0.92 0.93 0.90
0.53 0.60 0.73 0.87 0.88 0.88 0.90 1.02 1.07 1.04 0.98 0.89 0.93 0.99 0.99 1.10 1.32 1.63 1.77 1.77 1.78 1.70 1.77 1.99 2.00 1.97 1.88 1.76 1.77 1.69 1.66 1.80 1.74 1.55 1.52 1.42 1.32 1.17 1.10 1.04 0.90 0.87 0.91
0.43 0.48 0.59 0.74 0.85 0.91 0.96 1.03 1.10 1.10 1.03 0.99 1.00 1.02 1.10 1.18 1.24 1.43 1.62 1.69 1.73 1.70 1.81 1.87 1.87 1.94 1.85 1.79 1.71 1.67 1.65 1.78 1.89 1.76 1.73 1.71 1.57 1.40 1.31 1.17 1.04 1.03 0.89
0.41 0.49 0.58 0.67 0.82 0.94 1.01 1.07 1.14 1.16 1.12 1.12 1.13 1.18 1.24 1.28 1.28 1.37 1.51 1.61 1.66 1.70 1.80 1.86 1.88 1.87 1.92 2.02 1.90 1.84 1.89 1.95 2.02 1.98 1.91 2.00 1.92 1.71 1.54 1.35 1.19 1.09 1.00
0.45 0.53 0.59 0.68 0.75 0.84 1.00 1.12 1.23 1.29 1.20 1.23 1.33 1.34 1.32 1.25 1.20 1.40 1.54 1.55 1.67 1.75 1.75 1.72 1.77 1.95 2.04 2.06 1.91 1.91 2.02 2.00 1.97 1.99 1.95 2.05 2.06 1.92 1.62 1.37 1.28 1.24 1.16
0.62 0.66 0.69 0.77 0.86 0.90 0.98 1.04 1.19 1.26 1.31 1.39 1.46 1.47 1.40 1.22 1.40 1.53 1.54 1.56 1.65 1.70 1.71 1.64 1.56 1.60 1.70 1.79 1.75 1.70 1.75 1.80 1.86 1.87 1.88 1.93 1.97 1.89 1.70 1.52 1.39 1.29 1.24
0.77 0.89 0.95 1.00 1.11 1.13 1.15 1.14 1.18 1.32 1.41 1.44 1.45 1.46 1.44 1.50 1.54 1.42 1.36 1.28 1.33 1.41 1.41 1.38 1.21 1.13 1.34 1.42 1.56 1.54 1.45 1.41 1.44 1.58 1.70 1.73 1.86 1.91 1.87 1.67 1.60 1.50 1.34
1.06 1.19 1.32 1.38 1.45 1.50 1.55 1.51 1.51 1.55 1.63 1.62 1.54 1.55 1.64 1.67 1.65 1.43 1.32 1.19 1.18 1.19 1.18 1.14 1.13 1.11 1.17 1.26 1.33 1.34 1.29 1.25 1.25 1.26 1.37 1.56 1.73 1.88 1.89 1.80 1.75 1.64 1.45
1.40 1.52 1.63 1.68 1.72 1.73 1.71 1.75 1.80 1.89 1.90 1.90 1.86 1.90 1.91 1.97 1.94 1.64 1.49 1.30 1.25 1.19 1.21 1.26 1.25 1.14 1.19 1.16 1.15 1.17 1.18 1.23 1.24 1.23 1.26 1.43 1.62 1.73 1.87 1.82 1.76 1.66 1.49
1.49 1.60 1.77 1.88 1.94 1.89 1.88 1.99 2.13 2.25 2.21 2.21 2.23 2.23 2.15 2.11 2.06 1.71 1.50 1.30 1.32 1.30 1.34 1.30 1.23 1.09 1.05 0.99 0.99 1.07 1.05 1.06 1.16 1.19 1.19 1.29 1.42 1.55 1.71 1.68 1.59 1.60 1.46
1.76 1.77 1.82 1.90 2.01 2.01 2.06 2.09 2.21 2.32 2.31 2.27 2.19 2.11 2.04 2.05 2.01 1.72 1.54 1.35 1.39 1.42 1.33 1.28 1.22 1.13 0.97 0.91 0.86 0.89 0.92 0.98 1.05 1.10 1.19 1.30 1.44 1.56 1.58 1.57 1.56 1.47 1.40
1.97 2.03 2.01 2.03 1.98 1.93 2.06 2.17 2.26 2.37 2.32 2.26 2.26 2.13 2.03 2.00 1.86 1.65 1.49 1.40 1.48 1.53 1.48 1.38 1.31 1.18 0.96 0.89 0.80 0.81 0.85 0.84 0.95 1.04 1.10 1.20 1.32 1.47 1.57 1.63 1.63 1.51 1.33
1.86 1.89 1.94 1.95 1.97 1.99 2.06 2.15 2.26 2.29 2.26 2.19 2.20 2.19 2.09 1.99 1.93 1.73 1.49 1.36 1.36 1.39 1.50 1.57 1.41 1.24 1.06 0.93 0.92 0.89 0.83 0.78 0.91 1.03 1.02 1.06 1.14 1.27 1.53 1.74 1.84 1.76 1.49
1.53 1.56 1.56 1.66 1.74 1.89 2.07 2.09 2.16 2.23 2.26 2.26 2.21 2.15 2.10 2.04 2.04 1.86 1.63 1.44 1.41 1.46 1.53 1.57 1.44 1.31 1.14 1.00 0.96 0.87 0.77 0.76 0.84 0.94 1.01 1.08 1.18 1.28 1.41 1.57 1.76 1.79 1.62
1.32 1.35 1.41 1.53 1.63 1.80 1.99 2.10 2.02 2.03 2.17 2.10 1.99 1.89 1.83 1.80 1.87 1.77 1.56 1.46 1.46 1.53 1.59 1.66 1.60 1.48 1.36 1.22 1.12 1.06 1.01 0.96 0.91 0.93 1.05 1.10 1.15 1.16 1.22 1.35 1.55 1.65 1.51
1.22 1.23 1.25 1.28 1.39 1.50 1.64 1.73 1.67 1.48 1.52 1.45 1.32 1.20 1.17 1.21 1.28 1.24 1.15 1.10 1.14 1.28 1.39 1.55 1.55 1.44 1.36 1.32 1.28 1.22 1.15 1.08 1.02 1.00 1.03 1.07 1.08 1.10 1.16 1.25 1.36 1.45 1.40
1.19 1.15 1.16 1.17 1.24 1.27 1.32 1.42 1.46 1.33 1.15 1.06 0.92 0.79 0.73 0.75 0.85 0.92 0.94 0.94 0.96 0.99 1.09 1.28 1.28 1.25 1.23 1.24 1.21 1.12 1.05 1.05 1.07 1.03 0.98 1.03 1.08 1.11 1.14 1.22 1.27 1.37 1.41
1.39 1.32 1.21 1.17 1.18 1.18 1.21 1.27 1.36 1.40 1.29 1.07 0.83 0.63 0.55 0.56 0.65 0.80 0.92 0.87 0.89 0.87 0.91 1.05 1.10 1.11 1.14 1.19 1.17 1.16 1.11 1.12 1.13 1.09 1.07 1.09 1.17 1.20 1.19 1.22 1.29 1.32 1.36
1.29 1.31 1.21 1.16 1.18 1.21 1.22 1.29 1.37 1.38 1.41 1.32 1.05 0.74 0.57 0.56 0.64 0.79 0.87 0.81 0.89 0.91 0.94 1.01 1.06 1.07 1.10 1.17 1.18 1.18 1.17 1.19 1.17 1.18 1.18 1.19 1.26 1.32 1.23 1.17 1.21 1.27 1.23
1.02 1.01 0.95 0.98 1.02 1.08 1.14 1.18 1.23 1.29 1.32 1.28 1.13 0.86 0.59 0.53 0.61 0.81 0.89 0.93 0.99 1.01 1.02 1.01 1.08 1.10 1.11 1.11 1.14 1.14 1.16 1.19 1.19 1.19 1.24 1.27 1.27 1.28 1.20 1.17 1.16 1.21 1.16
0.85 0.79 0.71 0.77 0.88 0.94 1.01 1.06 1.07 1.09 1.12 1.11 1.01 0.71 0.49 0.49 0.63 0.80 0.93 1.02 1.02 1.03 1.03 1.04 1.06 1.03 1.03 1.04 1.07 1.08 1.15 1.18 1.18 1.17 1.22 1.27 1.27 1.24 1.19 1.18 1.16 1.17 1.21
0.84 0.81 0.66 0.67 0.81 0.85 0.86 0.95 0.95 0.96 0.98 1.00 0.90 0.65 0.54 0.57 0.71 0.85 1.01 1.06 1.02 1.00 0.97 0.98 0.98 0.97 0.93 0.96 1.03 1.09 1.16 1.17 1.15 1.14 1.17 1.20 1.21 1.19 1.17 1.16 1.19 1.23 1.25
0.75 0.81 0.69 0.62 0.70 0.70 0.76 0.94 0.97 0.95 0.97 0.97 0.83 0.72 0.70 0.79 0.89 0.99 1.08 1.08 1.02 0.98 0.97 0.96 0.94 0.90 0.83 0.84 0.87 0.94 1.05 1.10 1.06 1.04 1.09 1.09 1.10 1.08 1.05 1.04 1.07 1.15 1.19
0.59 0.69 0.62 0.55 0.60 0.69 0.80 0.93 1.00 0.98 0.99 1.00 0.88 0.77 0.76 0.85 0.92 0.98 1.03 1.00 0.93 0.94 0.94 0.90 0.83 0.78 0.76 0.83 0.86 0.81 0.80 0.80 0.79 0.83 0.90 0.93 0.98 1.03 1.01 0.98 1.03 1.07 1.15
0.57 0.65 0.58 0.49 0.50 0.59 0.75 0.87 0.94 0.94 0.93 0.90 0.82 0.74 0.74 0.80 0.87 0.86 0.82 0.80 0.78 0.78 0.76 0.74 0.75 0.73 0.69 0.63 0.63 0.61 0.61 0.58 0.54 0.58 0.70 0.81 0.85 0.93 1.00 1.03 1.08 1.15 1.18
0.50 0.57 0.54 0.45 0.43 0.50 0.64 0.76 0.84 0.88 0.90 0.87 0.82 0.79 0.80 0.81 0.76 0.72 0.71 0.69 0.69 0.68 0.66 0.64 0.63 0.59 0.57 0.53 0.49 0.49 0.47 0.43 0.41 0.45 0.51 0.62 0.73 0.85 0.92 0.95 0.98 1.07 1.13

GEFSGL_prec_meanprecacc_210.txt.gz
Total_Precipitation_Accumulation
0.78 0.80 0.92 1.02 1.02 0.99 0.99 0.97 1.02 1.04 1.07 1.12 1.14 1.14 1.13 1.19 1.37 1.62 1.58 1.52 1.55 1.61 1.70 1.83 1.87 1.97 1.96 1.78 1.71 1.67 1.71 1.83 1.65 1.42 1.39 1.34 1.21 1.09 1.09 1.03 0.98 0.97 0.94
0.55 0.62 0.75 0.88 0.89 0.88 0.91 1.04 1.09 1.06 1.00 0.91 0.94 1.00 1.00 1.11 1.33 1.65 1.79 1.78 1.79 1.71 1.79 2.01 2.03 2.01 1.92 1.81 1.83 1.74 1.70 1.84 1.77 1.59 1.56 1.46 1.36 1.22 1.15 1.09 0.93 0.89 0.93
0.44 0.50 0.60 0.75 0.86 0.92 0.97 1.04 1.11 1.12 1.05 1.01 1.02 1.03 1.12 1.19 1.25 1.45 1.63 1.70 1.74 1.71 1.83 1.89 1.90 1.97 1.89 1.83 1.76 1.72 1.68 1.82 1.93 1.79 1.75 1.73 1.59 1.42 1.33 1.19 1.05 1.05 0.91
0.42 0.50 0.59 0.68 0.84 0.96 1.02 1.09 1.16 1.19 1.15 1.16 1.16 1.19 1.26 1.30 1.30 1.39 1.53 1.63 1.68 1.72 1.81 1.88 1.90 1.91 1.96 2.06 1.93 1.88 1.93 2.00 2.05 2.01 1.93 2.02 1.93 1.72 1.55 1.36 1.20 1.11 1.02
0.47 0.55 0.61 0.70 0.76 0.87 1.04 1.15 1.25 1.31 1.24 1.28 1.34 1.34 1.33 1.27 1.22 1.43 1.57 1.57 1.70 1.77 1.78 1.74 1.80 1.99 2.08 2.10 1.94 1.94 2.05 2.03 1.98 2.01 1.97 2.07 2.09 1.95 1.65 1.39 1.30 1.26 1.18
0.64 0.68 0.71 0.79 0.89 0.95 1.03 1.07 1.21 1.27 1.32 1.40 1.47 1.48 1.41 1.23 1.41 1.54 1.56 1.58 1.67 1.73 1.74 1.67 1.59 1.62 1.72 1.81 1.78 1.72 1.76 1.81 1.87 1.89 1.91 1.98 2.03 1.93 1.74 1.54 1.42 1.31 1.27
0.78 0.90 0.97 1.02 1.13 1.17 1.18 1.16 1.19 1.33 1.43 1.46 1.46 1.47 1.44 1.51 1.55 1.42 1.37 1.29 1.35 1.43 1.43 1.40 1.23 1.15 1.36 1.44 1.57 1.56 1.46 1.43 1.46 1.59 1.72 1.76 1.89 1.94 1.89 1.69 1.63 1.52 1.36
1.08 1.20 1.32 1.38 1.46 1.51 1.56 1.52 1.51 1.56 1.64 1.63 1.56 1.57 1.65 1.68 1.67 1.44 1.33 1.20 1.20 1.21 1.20 1.17 1.16 1.14 1.19 1.29 1.35 1.36 1.31 1.27 1.26 1.27 1.38 1.57 1.74 1.89 1.90 1.82 1.78 1.66 1.47
1.41 1.53 1.63 1.69 1.73 1.74 1.72 1.75 1.81 1.90 1.91 1.91 1.88 1.92 1.94 2.00 1.97 1.68 1.54 1.33 1.28 1.23 1.24 1.29 1.28 1.18 1.24 1.20 1.18 1.20 1.20 1.25 1.25 1.24 1.26 1.44 1.62 1.74 1.87 1.84 1.77 1.67 1.50
1.50 1.61 1.77 1.89 1.94 1.90 1.89 2.00 2.15 2.27 2.24 2.24 2.28 2.29 2.22 2.19 2.14 1.79 1.60 1.38 1.39 1.37 1.41 1.36 1.29 1.14 1.09 1.04 1.04 1.10 1.07 1.07 1.16 1.19 1.20 1.29 1.43 1.55 1.71 1.68 1.60 1.61 1.47
1.76 1.78 1.83 1.90 2.01 2.02 2.07 2.13 2.26 2.36 2.34 2.32 2.26 2.19 2.13 2.14 2.09 1.79 1.62 1.46 1.48 1.50 1.41 1.36 1.29 1.17 1.00 0.96 0.90 0.91 0.94 0.99 1.05 1.10 1.19 1.30 1.44 1.56 1.58 1.58 1.57 1.48 1.41
1.99 2.04 2.02 2.03 1.98 1.94 2.08 2.20 2.30 2.41 2.37 2.32 2.35 2.23 2.14 2.10 1.94 1.74 1.58 1.49 1.55 1.59 1.53 1.42 1.34 1.20 0.97 0.90 0.81 0.82 0.85 0.84 0.95 1.04 1.10 1.20 1.32 1.47 1.57 1.63 1.64 1.52 1.34
1.89 1.91 1.96 1.96 1.99 2.01 2.09 2.18 2.30 2.32 2.28 2.21 2.21 2.20 2.12 2.02 1.96 1.77 1.54 1.44 1.44 1.44 1.54 1.59 1.42 1.25 1.06 0.93 0.93 0.90 0.83 0.78 0.91 1.03 1.03 1.06 1.14 1.28 1.54 1.75 1.84 1.77 1.50
1.57 1.60 1.61 1.70 1.78 1.93 2.10 2.13 2.20 2.26 2.27 2.27 2.22 2.15 2.10 2.06 2.05 1.87 1.64 1.46 1.44 1.49 1.55 1.59 1.45 1.32 1.15 1.00 0.97 0.87 0.78 0.76 0.84 0.94 1.02 1.08 1.19 1.28 1.42 1.58 1.77 1.80 1.63
1.37 1.40 1.46 1.57 1.66 1.82 2.02 2.12 2.04 2.05 2.18 2.11 2.00 1.91 1.85 1.81 1.89 1.78 1.56 1.47 1.46 1.54 1.60 1.67 1.60 1.48 1.37 1.22 1.12 1.06 1.01 0.96 0.91 0.93 1.06 1.11 1.17 1.17 1.24 1.36 1.57 1.67 1.53
1.26 1.26 1.28 1.30 1.40 1.52 1.65 1.74 1.69 1.50 1.53 1.46 1.34 1.22 1.19 1.23 1.29 1.25 1.16 1.10 1.15 1.29 1.40 1.57 1.56 1.46 1.37 1.33 1.29 1.22 1.16 1.08 1.02 1.01 1.03 1.07 1.09 1.11 1.16 1.25 1.37 1.46 1.41
1.26 1.19 1.18 1.19 1.25 1.29 1.35 1.44 1.48 1.35 1.17 1.08 0.95 0.81 0.75 0.78 0.88 0.94 0.96 0.95 0.97 1.00 1.10 1.29 1.30 1.26 1.24 1.25 1.23 1.13 1.06 1.06 1.08 1.04 0.99 1.04 1.09 1.11 1.15 1.22 1.28 1.37 1.41
1.48 1.38 1.24 1.19 1.20 1.20 1.24 1.30 1.38 1.42 1.31 1.10 0.87 0.66 0.58 0.58 0.67 0.81 0.94 0.89 0.90 0.88 0.92 1.06 1.11 1.13 1.15 1.20 1.20 1.19 1.14 1.15 1.16 1.12 1.09 1.11 1.18 1.22 1.21 1.23 1.30 1.33 1.37
1.34 1.34 1.23 1.18 1.21 1.24 1.25 1.31 1.39 1.41 1.44 1.37 1.09 0.77 0.60 0.58 0.65 0.81 0.88 0.83 0.90 0.92 0.95 1.02 1.07 1.08 1.12 1.20 1.21 1.20 1.20 1.21 1.20 1.21 1.21 1.22 1.29 1.35 1.25 1.18 1.23 1.28 1.24
1.07 1.06 0.98 1.00 1.04 1.11 1.17 1.20 1.25 1.31 1.34 1.31 1.15 0.88 0.60 0.54 0.62 0.82 0.90 0.95 1.00 1.02 1.02 1.03 1.09 1.11 1.12 1.12 1.15 1.15 1.17 1.20 1.21 1.21 1.26 1.30 1.30 1.31 1.23 1.19 1.18 1.22 1.18
0.93 0.86 0.76 0.81 0.92 0.97 1.03 1.08 1.09 1.11 1.13 1.13 1.03 0.73 0.51 0.50 0.64 0.80 0.94 1.03 1.03 1.04 1.04 1.05 1.07 1.04 1.03 1.05 1.08 1.09 1.16 1.20 1.19 1.19 1.24 1.29 1.29 1.25 1.21 1.19 1.18 1.18 1.22
0.89 0.84 0.68 0.70 0.83 0.88 0.89 0.97 0.97 0.97 0.99 1.01 0.92 0.67 0.55 0.58 0.72 0.86 1.01 1.06 1.02 1.01 0.98 1.00 1.00 0.99 0.95 0.97 1.04 1.11 1.17 1.18 1.17 1.15 1.18 1.21 1.22 1.20 1.18 1.17 1.19 1.23 1.26
0.79 0.83 0.70 0.64 0.71 0.71 0.78 0.95 0.98 0.96 0.98 0.98 0.85 0.74 0.71 0.80 0.90 1.00 1.09 1.10 1.03 0.99 0.98 0.97 0.95 0.91 0.84 0.85 0.89 0.96 1.07 1.12 1.08 1.06 1.11 1.10 1.11 1.09 1.06 1.05 1.08 1.16 1.20
0.60 0.70 0.63 0.57 0.62 0.70 0.82 0.95 1.01 0.99 1.00 1.01 0.89 0.78 0.78 0.87 0.95 1.00 1.06 1.03 0.96 0.96 0.96 0.91 0.84 0.80 0.78 0.85 0.89 0.84 0.83 0.82 0.81 0.85 0.92 0.95 1.00 1.05 1.02 0.99 1.04 1.09 1.17
0.57 0.66 0.59 0.50 0.51 0.61 0.77 0.90 0.97 0.96 0.94 0.92 0.84 0.76 0.76 0.82 0.89 0.88 0.84 0.82 0.79 0.79 0.76 0.75 0.76 0.75 0.70 0.64 0.64 0.62 0.63 0.59 0.56 0.60 0.72 0.82 0.87 0.95 1.01 1.05 1.10 1.17 1.20
0.52 0.59 0.56 0.47 0.45 0.53 0.67 0.79 0.87 0.92 0.94 0.90 0.85 0.82 0.83 0.83 0.78 0.74 0.72 0.70 0.70 0.69 0.67 0.64 0.64 0.60 0.58 0.53 0.50 0.50 0.48 0.45 0.42 0.46 0.52 0.63 0.74 0.86 0.94 0.97 1.00 1.09 1.14

GEFSGL_prec_meanprecacc_216.txt.gz
Total_Precipitation_Accumulation
0.80 0.82 0.94 1.05 1.04 1.01 1.00 0.98 1.03 1.06 1.10 1.14 1.17 1.17 1.17 1.23 1.40 1.65 1.61 1.55 1.58 1.64 1.73 1.87 1.92 2.05 2.03 1.84 1.78 1.75 1.80 1.92 1.72 1.46 1.43 1.38 1.25 1.12 1.12 1.06 1.00 1.00 0.98
0.57 0.64 0.76 0.90 0.90 0.90 0.92 1.05 1.10 1.08 1.02 0.95 0.99 1.05 1.04 1.14 1.36 1.68 1.81 1.81 1.81 1.74 1.82 2.05 2.08 2.08 2.00 1.89 1.90 1.82 1.78 1.92 1.84 1.65 1.62 1.51 1.40 1.24 1.17 1.12 0.97 0.93 0.96
0.44 0.50 0.62 0.76 0.88 0.94 0.98 1.05 1.13 1.13 1.08 1.07 1.08 1.09 1.19 1.24 1.28 1.47 1.65 1.73 1.76 1.73 1.86 1.93 1.95 2.03 1.95 1.90 1.83 1.78 1.74 1.89 2.01 1.86 1.82 1.79 1.65 1.46 1.36 1.22 1.09 1.09 0.94
0.42 0.51 0.60 0.69 0.86 0.97 1.03 1.10 1.17 1.21 1.19 1.22 1.21 1.24 1.33 1.35 1.32 1.41 1.55 1.65 1.70 1.74 1.84 1.91 1.96 1.96 2.01 2.11 2.00 1.95 2.00 2.08 2.14 2.08 1.99 2.07 1.99 1.77 1.59 1.40 1.25 1.16 1.07
0.47 0.55 0.61 0.70 0.77 0.87 1.04 1.15 1.26 1.31 1.25 1.31 1.37 1.36 1.35 1.29 1.25 1.45 1.60 1.60 1.73 1.80 1.81 1.78 1.85 2.03 2.11 2.14 1.98 2.00 2.11 2.09 2.05 2.07 2.03 2.12 2.13 1.99 1.70 1.44 1.34 1.31 1.22
0.65 0.69 0.72 0.80 0.90 0.95 1.03 1.07 1.21 1.28 1.33 1.41 1.48 1.50 1.42 1.24 1.42 1.55 1.58 1.61 1.70 1.76 1.77 1.70 1.62 1.65 1.73 1.83 1.81 1.75 1.79 1.85 1.90 1.92 1.95 2.01 2.06 1.97 1.78 1.59 1.47 1.36 1.31
0.79 0.91 0.98 1.03 1.13 1.17 1.18 1.16 1.19 1.33 1.43 1.47 1.48 1.48 1.46 1.53 1.57 1.43 1.38 1.31 1.38 1.47 1.47 1.43 1.25 1.17 1.38 1.46 1.59 1.58 1.47 1.44 1.47 1.61 1.74 1.78 1.92 1.97 1.92 1.74 1.67 1.57 1.41
1.09 1.21 1.33 1.39 1.46 1.52 1.56 1.52 1.52 1.56 1.65 1.64 1.56 1.57 1.67 1.69 1.68 1.45 1.34 1.21 1.22 1.24 1.23 1.19 1.18 1.16 1.21 1.30 1.37 1.37 1.32 1.28 1.27 1.28 1.39 1.58 1.76 1.92 1.94 1.86 1.82 1.69 1.50
1.42 1.54 1.64 1.69 1.73 1.74 1.72 1.76 1.81 1.90 1.92 1.91 1.88 1.93 1.95 2.01 1.98 1.69 1.55 1.35 1.30 1.25 1.26 1.31 1.32 1.21 1.26 1.22 1.20 1.21 1.21 1.26 1.26 1.25 1.27 1.45 1.63 1.75 1.89 1.86 1.80 1.70 1.52
1.51 1.62 1.78 1.90 1.96 1.91 1.90 2.01 2.16 2.28 2.24 2.25 2.28 2.30 2.24 2.20 2.15 1.80 1.63 1.42 1.43 1.41 1.44 1.39 1.32 1.17 1.12 1.07 1.06 1.13 1.09 1.09 1.18 1.21 1.22 1.32 1.44 1.56 1.72 1.69 1.62 1.64 1.50
1.78 1.79 1.84 1.93 2.04 2.04 2.09 2.14 2.27 2.37 2.35 2.32 2.26 2.20 2.14 2.15 2.10 1.79 1.63 1.48 1.51 1.55 1.49 1.42 1.34 1.22 1.05 0.99 0.94 0.94 0.97 1.01 1.07 1.13 1.23 1.33 1.46 1.58 1.59 1.58 1.58 1.49 1.44
2.02 2.07 2.05 2.06 2.01 1.96 2.11 2.23 2.32 2.43 2.38 2.34 2.36 2.25 2.15 2.11 1.95 1.74 1.58 1.50 1.59 1.65 1.61 1.53 1.45 1.30 1.06 0.98 0.88 0.87 0.88 0.86 0.97 1.07 1.12 1.22 1.34 1.49 1.59 1.65 1.65 1.53 1.36
1.92 1.94 1.99 2.00 2.03 2.06 2.14 2.23 2.34 2.35 2.31 2.24 2.24 2.23 2.14 2.04 1.97 1.77 1.55 1.45 1.47 1.48 1.58 1.65 1.50 1.33 1.14 1.00 0.98 0.93 0.85 0.79 0.93 1.05 1.04 1.08 1.16 1.30 1.56 1.77 1.86 1.79 1.51
1.59 1.62 1.64 1.75 1.83 1.98 2.16 2.19 2.25 2.30 2.32 2.31 2.25 2.18 2.13 2.08 2.07 1.88 1.64 1.46 1.45 1.50 1.56 1.61 1.47 1.35 1.18 1.03 1.00 0.91 0.80 0.78 0.85 0.96 1.03 1.10 1.20 1.30 1.43 1.60 1.79 1.82 1.65
1.40 1.44 1.51 1.62 1.72 1.88 2.07 2.18 2.11 2.12 2.25 2.16 2.03 1.93 1.87 1.83 1.90 1.79 1.57 1.47 1.47 1.55 1.61 1.68 1.62 1.50 1.39 1.24 1.14 1.09 1.04 0.99 0.93 0.94 1.07 1.12 1.18 1.18 1.25 1.37 1.58 1.68 1.54
1.29 1.29 1.32 1.35 1.46 1.58 1.75 1.84 1.78 1.56 1.58 1.49 1.36 1.24 1.21 1.24 1.30 1.25 1.17 1.11 1.15 1.29 1.41 1.58 1.58 1.47 1.39 1.35 1.31 1.24 1.18 1.10 1.04 1.03 1.06 1.10 1.11 1.13 1.18 1.27 1.38 1.48 1.43
1.29 1.23 1.23 1.25 1.33 1.37 1.42 1.49 1.52 1.38 1.19 1.10 0.96 0.83 0.77 0.80 0.89 0.95 0.97 0.96 0.98 1.01 1.11 1.30 1.31 1.28 1.26 1.27 1.24 1.15 1.07 1.08 1.11 1.07 1.02 1.07 1.12 1.14 1.17 1.24 1.30 1.40 1.44
1.53 1.44 1.30 1.24 1.24 1.24 1.27 1.32 1.41 1.43 1.33 1.11 0.88 0.68 0.59 0.59 0.68 0.82 0.95 0.90 0.91 0.89 0.93 1.07 1.12 1.14 1.17 1.22 1.22 1.21 1.16 1.17 1.19 1.15 1.12 1.15 1.22 1.25 1.24 1.26 1.33 1.35 1.40
1.38 1.38 1.27 1.21 1.23 1.26 1.27 1.33 1.41 1.42 1.46 1.38 1.10 0.79 0.61 0.59 0.66 0.81 0.89 0.83 0.91 0.93 0.96 1.03 1.08 1.09 1.13 1.21 1.23 1.23 1.22 1.24 1.23 1.24 1.24 1.25 1.32 1.39 1.30 1.24 1.28 1.34 1.30
1.10 1.09 1.00 1.01 1.05 1.12 1.18 1.21 1.26 1.33 1.35 1.32 1.17 0.90 0.62 0.55 0.63 0.82 0.91 0.95 1.01 1.02 1.03 1.04 1.10 1.13 1.14 1.14 1.17 1.17 1.19 1.23 1.23 1.23 1.28 1.31 1.32 1.33 1.26 1.23 1.23 1.27 1.23
0.96 0.89 0.78 0.82 0.93 0.98 1.04 1.09 1.10 1.12 1.15 1.14 1.05 0.75 0.53 0.52 0.66 0.82 0.95 1.04 1.05 1.05 1.05 1.06 1.08 1.06 1.05 1.08 1.11 1.12 1.19 1.22 1.20 1.20 1.25 1.30 1.30 1.27 1.22 1.22 1.21 1.21 1.24
0.94 0.88 0.71 0.72 0.85 0.89 0.90 0.99 0.98 0.98 1.00 1.02 0.93 0.69 0.57 0.59 0.74 0.87 1.03 1.08 1.04 1.02 0.99 1.01 1.01 1.00 0.96 0.98 1.06 1.12 1.19 1.21 1.18 1.17 1.20 1.23 1.24 1.23 1.20 1.20 1.22 1.26 1.29
0.83 0.86 0.73 0.66 0.73 0.73 0.79 0.97 0.99 0.98 0.99 0.99 0.86 0.75 0.73 0.81 0.91 1.02 1.12 1.12 1.05 1.00 0.99 0.98 0.96 0.92 0.86 0.87 0.91 0.98 1.09 1.14 1.10 1.08 1.13 1.12 1.13 1.11 1.08 1.07 1.11 1.18 1.23
0.62 0.72 0.65 0.59 0.63 0.72 0.83 0.96 1.03 1.01 1.01 1.02 0.91 0.80 0.80 0.89 0.96 1.02 1.08 1.05 0.98 0.98 0.97 0.93 0.86 0.81 0.79 0.86 0.90 0.86 0.84 0.84 0.82 0.86 0.93 0.96 1.02 1.06 1.03 1.01 1.07 1.12 1.20
0.58 0.67 0.60 0.52 0.53 0.63 0.78 0.91 0.98 0.97 0.96 0.94 0.86 0.79 0.79 0.86 0.91 0.90 0.87 0.86 0.83 0.83 0.79 0.77 0.78 0.76 0.71 0.64 0.64 0.63 0.63 0.60 0.56 0.60 0.72 0.83 0.88 0.96 1.03 1.06 1.12 1.20 1.23
0.53 0.60 0.58 0.49 0.46 0.54 0.69 0.81 0.89 0.94 0.96 0.92 0.87 0.85 0.85 0.87 0.81 0.77 0.76 0.75 0.74 0.74 0.71 0.67 0.66 0.61 0.59 0.54 0.50 0.51 0.49 0.45 0.43 0.47 0.53 0.63 0.75 0.87 0.95 0.99 1.02 1.11 1.17

GEFSGL_prec_meanprecacc_222.txt.gz
Total_Precipitation_Accumulation
0.84 0.85 0.97 1.08 1.07 1.03 1.02 0.99 1.05 1.07 1.11 1.16 1.18 1.19 1.19 1.26 1.44 1.68 1.63 1.57 1.59 1.66 1.75 1.89 1.94 2.07 2.05 1.87 1.83 1.80 1.84 1.96 1.76 1.48 1.44 1.39 1.25 1.13 1.13 1.07 1.01 1.01 0.99
0.60 0.66 0.79 0.92 0.92 0.91 0.94 1.06 1.11 1.09 1.03 0.96 0.99 1.06 1.06 1.17 1.39 1.70 1.82 1.81 1.82 1.75 1.83 2.07 2.10 2.09 2.02 1.91 1.93 1.86 1.82 1.95 1.86 1.66 1.62 1.52 1.41 1.25 1.17 1.12 0.98 0.94 0.98
0.50 0.52 0.63 0.78 0.90 0.95 0.99 1.06 1.13 1.14 1.08 1.07 1.08 1.10 1.22 1.29 1.32 1.49 1.66 1.74 1.77 1.75 1.87 1.96 1.97 2.04 1.96 1.92 1.85 1.81 1.77 1.91 2.03 1.87 1.83 1.80 1.67 1.48 1.37 1.24 1.11 1.10 0.95
0.43 0.52 0.61 0.71 0.87 0.98 1.04 1.10 1.17 1.21 1.19 1.22 1.21 1.25 1.34 1.37 1.34 1.42 1.56 1.67 1.71 1.75 1.84 1.92 1.97 1.98 2.03 2.12 2.01 1.97 2.04 2.11 2.16 2.10 2.01 2.08 2.01 1.79 1.61 1.42 1.26 1.17 1.08
0.48 0.56 0.62 0.72 0.78 0.88 1.04 1.16 1.26 1.32 1.25 1.31 1.37 1.36 1.36 1.31 1.26 1.47 1.61 1.62 1.74 1.81 1.81 1.79 1.86 2.05 2.14 2.16 2.00 2.02 2.13 2.12 2.07 2.09 2.04 2.13 2.14 2.00 1.71 1.45 1.35 1.31 1.23
0.66 0.71 0.74 0.82 0.91 0.96 1.04 1.08 1.22 1.28 1.34 1.42 1.48 1.51 1.44 1.25 1.44 1.58 1.59 1.62 1.72 1.77 1.78 1.71 1.64 1.67 1.75 1.85 1.83 1.77 1.81 1.87 1.92 1.94 1.96 2.02 2.07 1.98 1.79 1.60 1.48 1.38 1.32
0.81 0.93 1.00 1.04 1.15 1.18 1.19 1.17 1.20 1.34 1.44 1.47 1.48 1.49 1.47 1.54 1.58 1.43 1.38 1.32 1.38 1.47 1.48 1.45 1.27 1.18 1.39 1.47 1.60 1.60 1.50 1.47 1.49 1.63 1.75 1.80 1.94 1.99 1.94 1.75 1.69 1.59 1.43
1.11 1.23 1.36 1.41 1.47 1.53 1.57 1.53 1.54 1.59 1.66 1.65 1.57 1.58 1.67 1.70 1.68 1.45 1.34 1.22 1.22 1.24 1.24 1.20 1.20 1.17 1.22 1.31 1.38 1.39 1.35 1.31 1.29 1.30 1.40 1.60 1.77 1.93 1.95 1.87 1.83 1.71 1.52
1.47 1.57 1.66 1.72 1.75 1.76 1.73 1.78 1.85 1.95 1.95 1.93 1.89 1.94 1.96 2.03 1.99 1.69 1.55 1.35 1.31 1.26 1.27 1.32 1.33 1.22 1.27 1.23 1.21 1.22 1.23 1.29 1.28 1.27 1.28 1.46 1.64 1.76 1.90 1.87 1.81 1.72 1.55
1.57 1.67 1.81 1.92 1.98 1.94 1.93 2.04 2.20 2.33 2.29 2.28 2.31 2.32 2.26 2.22 2.17 1.81 1.64 1.43 1.44 1.42 1.45 1.39 1.33 1.18 1.13 1.07 1.07 1.13 1.10 1.11 1.20 1.23 1.24 1.33 1.45 1.57 1.73 1.70 1.63 1.65 1.51
1.85 1.86 1.89 1.98 2.09 2.09 2.14 2.19 2.33 2.44 2.42 2.39 2.32 2.26 2.19 2.19 2.12 1.81 1.65 1.49 1.53 1.56 1.49 1.43 1.36 1.23 1.06 1.00 0.94 0.95 0.97 1.02 1.09 1.15 1.25 1.34 1.47 1.59 1.60 1.59 1.59 1.51 1.45
2.08 2.17 2.16 2.16 2.07 2.01 2.17 2.29 2.40 2.51 2.47 2.44 2.47 2.36 2.26 2.18 2.00 1.77 1.60 1.52 1.60 1.65 1.61 1.54 1.47 1.32 1.09 1.00 0.89 0.88 0.89 0.88 0.99 1.09 1.14 1.23 1.35 1.50 1.60 1.66 1.66 1.54 1.37
2.01 2.05 2.13 2.12 2.10 2.12 2.21 2.30 2.42 2.44 2.41 2.33 2.34 2.33 2.23 2.13 2.05 1.83 1.58 1.47 1.48 1.49 1.58 1.65 1.50 1.34 1.17 1.04 1.01 0.97 0.89 0.82 0.95 1.07 1.06 1.09 1.17 1.31 1.58 1.78 1.87 1.80 1.52
1.68 1.71 1.73 1.84 1.91 2.06 2.23 2.27 2.33 2.38 2.40 2.40 2.36 2.30 2.26 2.22 2.19 1.97 1.70 1.49 1.47 1.51 1.58 1.62 1.48 1.36 1.19 1.06 1.04 0.96 0.85 0.82 0.88 0.98 1.05 1.11 1.21 1.31 1.45 1.62 1.81 1.84 1.66
1.50 1.51 1.58 1.69 1.78 1.93 2.13 2.25 2.18 2.20 2.34 2.26 2.13 2.03 1.95 1.90 1.96 1.83 1.60 1.50 1.48 1.56 1.62 1.70 1.63 1.50 1.39 1.25 1.16 1.11 1.08 1.03 0.96 0.97 1.09 1.14 1.19 1.20 1.26 1.39 1.61 1.70 1.56
1.35 1.36 1.39 1.42 1.51 1.63 1.79 1.90 1.85 1.61 1.63 1.55 1.41 1.29 1.26 1.29 1.34 1.29 1.19 1.13 1.17 1.30 1.42 1.60 1.59 1.48 1.40 1.36 1.32 1.25 1.20 1.12 1.06 1.05 1.08 1.12 1.13 1.15 1.20 1.29 1.40 1.49 1.45
1.38 1.31 1.30 1.31 1.38 1.43 1.47 1.53 1.56 1.42 1.23 1.15 1.01 0.88 0.81 0.83 0.91 0.97 1.00 0.98 1.00 1.03 1.12 1.31 1.32 1.29 1.27 1.29 1.26 1.16 1.08 1.09 1.12 1.09 1.04 1.09 1.14 1.16 1.19 1.26 1.31 1.41 1.45
1.61 1.52 1.38 1.31 1.30 1.29 1.30 1.35 1.44 1.47 1.37 1.16 0.92 0.70 0.60 0.61 0.70 0.83 0.96 0.91 0.92 0.90 0.93 1.08 1.12 1.14 1.17 1.23 1.22 1.21 1.17 1.18 1.20 1.16 1.14 1.16 1.24 1.27 1.26 1.28 1.35 1.37 1.42
1.43 1.43 1.31 1.25 1.26 1.28 1.30 1.35 1.43 1.45 1.48 1.40 1.12 0.80 0.63 0.60 0.67 0.82 0.90 0.84 0.91 0.94 0.97 1.03 1.08 1.10 1.14 1.22 1.24 1.24 1.23 1.25 1.24 1.25 1.25 1.26 1.34 1.41 1.32 1.26 1.30 1.36 1.33
1.13 1.13 1.04 1.04 1.08 1.14 1.20 1.23 1.28 1.34 1.37 1.34 1.18 0.92 0.64 0.57 0.64 0.84 0.92 0.96 1.02 1.03 1.04 1.05 1.11 1.14 1.15 1.16 1.19 1.19 1.21 1.25 1.25 1.25 1.30 1.33 1.34 1.35 1.27 1.24 1.25 1.30 1.25
0.99 0.93 0.82 0.86 0.97 1.02 1.07 1.11 1.12 1.14 1.16 1.16 1.06 0.77 0.55 0.53 0.67 0.83 0.96 1.05 1.06 1.06 1.06 1.07 1.09 1.07 1.07 1.10 1.13 1.15 1.22 1.25 1.23 1.23 1.28 1.33 1.32 1.29 1.24 1.24 1.23 1.23 1.27
0.97 0.92 0.75 0.76 0.89 0.93 0.93 1.01 1.00 0.99 1.01 1.02 0.93 0.70 0.59 0.60 0.75 0.89 1.04 1.09 1.05 1.03 1.00 1.02 1.02 1.00 0.97 1.00 1.07 1.14 1.21 1.22 1.20 1.19 1.21 1.24 1.26 1.25 1.22 1.22 1.25 1.28 1.31
0.85 0.88 0.75 0.70 0.78 0.76 0.82 0.99 1.01 0.99 1.00 1.00 0.86 0.76 0.74 0.82 0.92 1.03 1.13 1.14 1.06 1.01 1.00 0.99 0.97 0.93 0.87 0.88 0.92 0.99 1.10 1.15 1.11 1.09 1.14 1.14 1.15 1.13 1.10 1.09 1.13 1.20 1.25
0.63 0.73 0.67 0.60 0.64 0.73 0.84 0.97 1.04 1.02 1.02 1.03 0.92 0.82 0.82 0.90 0.98 1.03 1.09 1.06 0.99 0.99 0.98 0.94 0.87 0.82 0.81 0.87 0.91 0.87 0.85 0.85 0.83 0.87 0.94 0.98 1.04 1.08 1.05 1.03 1.08 1.13 1.21
0.59 0.68 0.61 0.53 0.54 0.63 0.79 0.92 0.99 0.98 0.96 0.94 0.86 0.80 0.80 0.87 0.91 0.90 0.88 0.87 0.84 0.84 0.80 0.78 0.79 0.77 0.72 0.66 0.66 0.64 0.65 0.62 0.58 0.61 0.74 0.85 0.89 0.98 1.05 1.08 1.14 1.22 1.25
0.54 0.62 0.59 0.50 0.47 0.55 0.70 0.82 0.90 0.95 0.97 0.94 0.89 0.86 0.86 0.88 0.83 0.78 0.77 0.76 0.76 0.75 0.72 0.69 0.67 0.63 0.61 0.57 0.53 0.54 0.52 0.48 0.45 0.49 0.55 0.65 0.76 0.89 0.97 1.00 1.03 1.13 1.19

GEFSGL_prec_meanprecacc_228.txt.gz
Total_Precipitation_Accumulation
0.86 0.88 1.00 1.11 1.10 1.06 1.04 1.01 1.08 1.10 1.14 1.17 1.20 1.20 1.20 1.27 1.46 1.71 1.66 1.59 1.61 1.68 1.77 1.92 1.97 2.09 2.07 1.90 1.86 1.85 1.89 2.01 1.83 1.54 1.46 1.40 1.27 1.14 1.14 1.08 1.01 1.02 1.00
0.63 0.70 0.82 0.94 0.94 0.94 0.96 1.08 1.14 1.11 1.04 0.97 1.00 1.07 1.08 1.18 1.41 1.73 1.87 1.86 1.86 1.78 1.87 2.10 2.12 2.12 2.04 1.94 1.96 1.90 1.87 2.01 1.91 1.68 1.63 1.53 1.42 1.26 1.19 1.13 0.98 0.95 0.98
0.55 0.59 0.67 0.80 0.92 0.97 1.01 1.08 1.16 1.16 1.09 1.08 1.09 1.10 1.23 1.31 1.35 1.52 1.69 1.77 1.80 1.78 1.90 1.98 1.98 2.06 1.98 1.93 1.86 1.83 1.80 1.93 2.05 1.89 1.84 1.81 1.68 1.49 1.38 1.25 1.12 1.11 0.96
0.47 0.56 0.64 0.74 0.91 1.02 1.06 1.12 1.19 1.23 1.20 1.23 1.22 1.25 1.34 1.37 1.35 1.44 1.59 1.70 1.75 1.79 1.87 1.94 1.99 2.00 2.04 2.14 2.03 2.00 2.07 2.13 2.18 2.12 2.02 2.09 2.01 1.80 1.62 1.43 1.27 1.18 1.09
0.53 0.63 0.69 0.78 0.84 0.93 1.08 1.19 1.28 1.33 1.27 1.33 1.38 1.37 1.36 1.31 1.27 1.49 1.63 1.63 1.76 1.82 1.83 1.80 1.88 2.07 2.15 2.18 2.02 2.04 2.16 2.13 2.09 2.10 2.06 2.14 2.14 2.01 1.72 1.46 1.36 1.32 1.23
0.74 0.79 0.82 0.89 0.96 1.01 1.07 1.11 1.25 1.31 1.36 1.44 1.50 1.52 1.44 1.26 1.46 1.59 1.60 1.64 1.73 1.79 1.79 1.72 1.65 1.68 1.76 1.87 1.86 1.80 1.82 1.87 1.93 1.94 1.97 2.04 2.08 1.99 1.80 1.61 1.49 1.39 1.33
0.90 1.02 1.07 1.10 1.19 1.21 1.22 1.21 1.25 1.39 1.49 1.51 1.50 1.50 1.48 1.55 1.60 1.46 1.41 1.34 1.40 1.48 1.49 1.46 1.28 1.19 1.41 1.49 1.63 1.62 1.51 1.48 1.50 1.64 1.77 1.81 1.95 2.00 1.95 1.76 1.70 1.60 1.44
1.16 1.27 1.40 1.45 1.52 1.57 1.62 1.59 1.60 1.66 1.75 1.70 1.60 1.60 1.68 1.72 1.72 1.48 1.36 1.23 1.24 1.25 1.25 1.21 1.21 1.18 1.23 1.33 1.40 1.40 1.36 1.32 1.31 1.32 1.41 1.61 1.78 1.95 1.97 1.89 1.84 1.72 1.54
1.49 1.60 1.69 1.75 1.80 1.80 1.79 1.85 1.91 2.01 2.05 1.98 1.93 1.97 1.99 2.06 2.02 1.72 1.58 1.37 1.32 1.27 1.28 1.33 1.34 1.23 1.28 1.24 1.22 1.24 1.24 1.30 1.30 1.28 1.30 1.47 1.65 1.77 1.92 1.89 1.82 1.73 1.56
1.60 1.71 1.88 1.99 2.04 1.98 1.99 2.12 2.28 2.40 2.38 2.36 2.38 2.40 2.33 2.28 2.21 1.85 1.69 1.47 1.46 1.44 1.46 1.40 1.33 1.19 1.14 1.08 1.07 1.14 1.11 1.12 1.21 1.24 1.25 1.34 1.46 1.59 1.75 1.72 1.64 1.66 1.52
1.87 1.89 1.95 2.06 2.16 2.17 2.23 2.31 2.44 2.54 2.53 2.49 2.43 2.36 2.27 2.24 2.17 1.86 1.69 1.52 1.54 1.57 1.51 1.44 1.37 1.25 1.07 1.01 0.95 0.95 0.98 1.03 1.10 1.17 1.27 1.36 1.48 1.60 1.62 1.61 1.60 1.52 1.46
2.11 2.21 2.22 2.22 2.14 2.11 2.28 2.41 2.52 2.63 2.59 2.53 2.54 2.42 2.31 2.24 2.05 1.83 1.65 1.55 1.62 1.67 1.63 1.56 1.49 1.34 1.10 1.01 0.90 0.89 0.90 0.88 1.00 1.11 1.17 1.26 1.38 1.52 1.62 1.68 1.68 1.56 1.38
2.05 2.10 2.18 2.20 2.22 2.23 2.36 2.49 2.62 2.65 2.56 2.42 2.40 2.37 2.27 2.16 2.08 1.87 1.63 1.53 1.53 1.52 1.62 1.68 1.52 1.36 1.19 1.06 1.03 0.98 0.90 0.84 0.97 1.09 1.08 1.12 1.20 1.34 1.60 1.80 1.89 1.82 1.54
1.72 1.76 1.78 1.90 2.02 2.18 2.34 2.38 2.44 2.50 2.51 2.48 2.41 2.33 2.30 2.26 2.24 2.03 1.77 1.56 1.52 1.55 1.61 1.64 1.50 1.38 1.20 1.08 1.07 0.98 0.86 0.83 0.90 1.00 1.07 1.13 1.23 1.33 1.47 1.64 1.83 1.86 1.69
1.52 1.54 1.61 1.72 1.83 1.98 2.18 2.31 2.25 2.26 2.41 2.32 2.18 2.07 2.01 1.96 2.02 1.89 1.65 1.55 1.52 1.60 1.65 1.71 1.64 1.52 1.41 1.27 1.18 1.15 1.11 1.05 0.98 0.99 1.12 1.17 1.21 1.21 1.28 1.41 1.63 1.73 1.59
1.37 1.38 1.41 1.45 1.54 1.67 1.83 1.95 1.91 1.67 1.69 1.60 1.46 1.33 1.29 1.32 1.37 1.31 1.21 1.15 1.19 1.32 1.43 1.60 1.61 1.50 1.42 1.39 1.34 1.27 1.22 1.15 1.10 1.08 1.10 1.14 1.14 1.16 1.21 1.30 1.41 1.51 1.47
1.42 1.34 1.33 1.34 1.42 1.46 1.51 1.57 1.61 1.46 1.27 1.19 1.05 0.91 0.83 0.85 0.93 0.98 1.01 0.99 1.00 1.03 1.13 1.31 1.33 1.31 1.30 1.32 1.28 1.18 1.10 1.11 1.15 1.12 1.06 1.10 1.15 1.17 1.20 1.28 1.33 1.42 1.46
1.65 1.56 1.41 1.35 1.34 1.33 1.35 1.39 1.48 1.50 1.40 1.18 0.95 0.72 0.62 0.61 0.70 0.84 0.97 0.92 0.92 0.90 0.94 1.08 1.13 1.15 1.19 1.24 1.24 1.23 1.18 1.19 1.21 1.18 1.16 1.19 1.26 1.29 1.27 1.29 1.36 1.39 1.44
1.46 1.47 1.36 1.31 1.31 1.32 1.33 1.39 1.47 1.49 1.52 1.44 1.15 0.83 0.64 0.61 0.68 0.84 0.91 0.85 0.92 0.94 0.97 1.04 1.09 1.10 1.14 1.22 1.24 1.25 1.24 1.26 1.25 1.26 1.26 1.28 1.36 1.43 1.34 1.28 1.33 1.39 1.36
1.17 1.18 1.09 1.09 1.12 1.19 1.24 1.28 1.31 1.38 1.41 1.39 1.22 0.95 0.66 0.58 0.65 0.85 0.93 0.97 1.03 1.04 1.04 1.05 1.11 1.14 1.15 1.16 1.19 1.19 1.22 1.26 1.26 1.26 1.31 1.34 1.35 1.36 1.29 1.26 1.26 1.31 1.27
1.02 0.96 0.85 0.90 1.00 1.06 1.12 1.16 1.16 1.18 1.20 1.20 1.09 0.79 0.57 0.54 0.68 0.83 0.97 1.06 1.06 1.07 1.07 1.07 1.09 1.07 1.07 1.10 1.13 1.15 1.22 1.26 1.24 1.24 1.29 1.34 1.34 1.31 1.26 1.25 1.25 1.25 1.29
1.00 0.94 0.78 0.79 0.93 0.98 0.99 1.07 1.05 1.03 1.04 1.05 0.95 0.72 0.61 0.61 0.75 0.89 1.05 1.10 1.07 1.04 1.01 1.02 1.02 1.01 0.98 1.00 1.07 1.14 1.21 1.23 1.21 1.20 1.22 1.25 1.27 1.26 1.24 1.24 1.26 1.30 1.33
0.87 0.91 0.78 0.74 0.84 0.83 0.89 1.07 1.09 1.05 1.04 1.02 0.88 0.78 0.75 0.84 0.93 1.04 1.14 1.14 1.07 1.02 1.00 0.99 0.97 0.93 0.87 0.89 0.93 1.00 1.11 1.16 1.11 1.10 1.15 1.15 1.16 1.14 1.12 1.11 1.15 1.22 1.27
0.66 0.76 0.71 0.65 0.69 0.77 0.88 1.02 1.09 1.06 1.05 1.05 0.93 0.83 0.83 0.91 0.98 1.04 1.09 1.07 1.00 0.99 0.98 0.94 0.87 0.83 0.81 0.88 0.92 0.87 0.86 0.85 0.84 0.88 0.96 0.99 1.05 1.09 1.07 1.05 1.10 1.16 1.24
0.62 0.71 0.64 0.56 0.57 0.67 0.82 0.95 1.02 1.01 0.98 0.95 0.87 0.80 0.81 0.87 0.92 0.91 0.89 0.88 0.85 0.85 0.81 0.79 0.80 0.77 0.73 0.66 0.66 0.65 0.66 0.63 0.60 0.63 0.75 0.86 0.91 1.00 1.07 1.10 1.16 1.24 1.28
0.57 0.64 0.61 0.53 0.51 0.58 0.74 0.85 0.93 0.97 0.98 0.94 0.89 0.86 0.87 0.89 0.84 0.80 0.79 0.78 0.77 0.76 0.73 0.69 0.68 0.64 0.61 0.57 0.54 0.55 0.53 0.49 0.48 0.52 0.58 0.69 0.79 0.91 0.99 1.02 1.05 1.15 1.22

GEFSGL_prec_meanprecacc_234.txt.gz
Total_Precipitation_Accumulation
0.87 0.90 1.02 1.12 1.11 1.08 1.06 1.04 1.12 1.13 1.16 1.20 1.21 1.22 1.22 1.29 1.48 1.74 1.68 1.63 1.66 1.71 1.80 1.96 2.01 2.12 2.11 1.95 1.91 1.90 1.95 2.07 1.89 1.59 1.50 1.42 1.30 1.16 1.16 1.09 1.02 1.02 1.00
0.65 0.72 0.84 0.96 0.95 0.95 0.98 1.11 1.17 1.13 1.06 0.98 1.01 1.09 1.09 1.20 1.43 1.76 1.89 1.89 1.91 1.85 1.92 2.13 2.16 2.15 2.08 1.98 2.00 1.94 1.91 2.05 1.96 1.72 1.65 1.54 1.44 1.28 1.20 1.15 1.00 0.96 0.99
0.57 0.62 0.69 0.82 0.94 0.98 1.03 1.10 1.17 1.17 1.11 1.09 1.10 1.12 1.24 1.33 1.37 1.54 1.71 1.78 1.82 1.81 1.94 2.02 2.02 2.09 2.02 1.97 1.90 1.86 1.83 1.97 2.09 1.92 1.86 1.83 1.69 1.50 1.39 1.26 1.13 1.12 0.96
0.48 0.57 0.66 0.77 0.94 1.05 1.09 1.15 1.22 1.24 1.21 1.25 1.24 1.27 1.36 1.39 1.36 1.46 1.61 1.72 1.77 1.80 1.89 1.98 2.03 2.03 2.07 2.17 2.06 2.03 2.10 2.17 2.22 2.14 2.04 2.11 2.03 1.81 1.63 1.44 1.27 1.18 1.09
0.54 0.65 0.72 0.84 0.90 0.99 1.14 1.23 1.32 1.35 1.28 1.34 1.40 1.39 1.39 1.33 1.29 1.50 1.65 1.65 1.78 1.85 1.85 1.82 1.90 2.09 2.17 2.20 2.04 2.07 2.19 2.17 2.12 2.13 2.08 2.17 2.16 2.02 1.73 1.47 1.37 1.33 1.24
0.75 0.81 0.85 0.93 1.02 1.06 1.14 1.17 1.29 1.33 1.39 1.46 1.52 1.53 1.45 1.27 1.47 1.60 1.62 1.65 1.75 1.80 1.80 1.73 1.66 1.69 1.77 1.89 1.89 1.83 1.86 1.91 1.97 1.99 2.01 2.07 2.10 2.00 1.82 1.63 1.51 1.40 1.34
0.92 1.05 1.10 1.12 1.22 1.24 1.26 1.25 1.29 1.42 1.52 1.53 1.52 1.52 1.48 1.56 1.61 1.48 1.42 1.35 1.41 1.49 1.49 1.47 1.28 1.20 1.43 1.52 1.66 1.65 1.54 1.51 1.54 1.69 1.81 1.84 1.98 2.02 1.97 1.77 1.71 1.61 1.45
1.19 1.31 1.43 1.47 1.55 1.60 1.67 1.65 1.65 1.70 1.79 1.73 1.62 1.62 1.69 1.72 1.72 1.49 1.37 1.24 1.24 1.26 1.25 1.22 1.22 1.20 1.26 1.37 1.43 1.43 1.39 1.35 1.34 1.36 1.46 1.65 1.82 1.98 1.99 1.91 1.86 1.73 1.55
1.52 1.62 1.71 1.78 1.82 1.84 1.84 1.92 1.98 2.08 2.11 2.02 1.96 1.98 1.99 2.06 2.02 1.72 1.58 1.37 1.33 1.28 1.29 1.34 1.36 1.25 1.30 1.27 1.26 1.27 1.27 1.33 1.34 1.32 1.33 1.49 1.67 1.79 1.94 1.92 1.85 1.74 1.58
1.61 1.73 1.90 2.01 2.07 2.06 2.07 2.19 2.34 2.46 2.43 2.39 2.41 2.43 2.35 2.29 2.22 1.86 1.69 1.48 1.47 1.45 1.49 1.43 1.36 1.21 1.16 1.11 1.10 1.18 1.15 1.16 1.25 1.27 1.27 1.36 1.48 1.61 1.77 1.74 1.67 1.68 1.54
1.88 1.90 1.96 2.07 2.19 2.22 2.28 2.35 2.50 2.59 2.57 2.52 2.46 2.40 2.30 2.28 2.21 1.89 1.71 1.54 1.56 1.60 1.53 1.46 1.40 1.28 1.10 1.03 0.97 0.98 1.01 1.05 1.13 1.19 1.29 1.38 1.50 1.62 1.64 1.63 1.63 1.55 1.49
2.12 2.22 2.23 2.23 2.16 2.13 2.31 2.45 2.57 2.69 2.65 2.58 2.59 2.46 2.36 2.29 2.09 1.86 1.67 1.57 1.65 1.70 1.67 1.61 1.54 1.40 1.14 1.03 0.91 0.90 0.91 0.89 1.01 1.12 1.19 1.29 1.40 1.54 1.64 1.70 1.71 1.59 1.42
2.07 2.12 2.19 2.22 2.23 2.24 2.38 2.54 2.67 2.69 2.60 2.47 2.45 2.41 2.31 2.19 2.11 1.89 1.66 1.56 1.58 1.58 1.68 1.75 1.59 1.42 1.23 1.09 1.05 1.00 0.91 0.85 0.99 1.11 1.10 1.14 1.23 1.38 1.64 1.84 1.93 1.86 1.59
1.73 1.77 1.78 1.91 2.03 2.18 2.36 2.41 2.48 2.53 2.54 2.51 2.44 2.36 2.32 2.28 2.26 2.06 1.79 1.60 1.56 1.59 1.65 1.68 1.53 1.40 1.23 1.10 1.09 1.00 0.88 0.85 0.92 1.03 1.10 1.16 1.27 1.38 1.54 1.71 1.90 1.92 1.73
1.54 1.55 1.62 1.73 1.83 1.99 2.20 2.33 2.28 2.28 2.43 2.34 2.20 2.10 2.03 1.99 2.05 1.91 1.66 1.56 1.54 1.62 1.67 1.73 1.66 1.54 1.43 1.29 1.20 1.16 1.13 1.08 1.01 1.02 1.15 1.21 1.25 1.25 1.33 1.48 1.69 1.79 1.63
1.39 1.40 1.43 1.46 1.55 1.67 1.84 1.97 1.93 1.69 1.72 1.64 1.49 1.36 1.32 1.35 1.40 1.32 1.22 1.16 1.20 1.34 1.45 1.62 1.63 1.53 1.44 1.40 1.35 1.29 1.24 1.17 1.12 1.10 1.12 1.17 1.18 1.20 1.26 1.35 1.46 1.55 1.50
1.43 1.36 1.35 1.35 1.43 1.47 1.52 1.60 1.64 1.50 1.32 1.24 1.10 0.96 0.87 0.89 0.96 1.00 1.02 1.00 1.02 1.05 1.14 1.34 1.35 1.33 1.31 1.33 1.30 1.20 1.12 1.13 1.17 1.13 1.08 1.13 1.18 1.21 1.24 1.32 1.37 1.46 1.49
1.68 1.59 1.43 1.36 1.35 1.34 1.37 1.42 1.51 1.54 1.44 1.24 1.01 0.78 0.67 0.65 0.73 0.87 1.00 0.94 0.95 0.93 0.97 1.11 1.16 1.17 1.20 1.25 1.25 1.24 1.19 1.20 1.22 1.19 1.18 1.21 1.29 1.31 1.30 1.33 1.40 1.42 1.47
1.51 1.51 1.40 1.34 1.34 1.37 1.39 1.44 1.50 1.52 1.55 1.48 1.19 0.88 0.71 0.68 0.75 0.89 0.95 0.87 0.94 0.97 0.99 1.06 1.11 1.12 1.15 1.23 1.25 1.25 1.25 1.27 1.26 1.27 1.28 1.31 1.40 1.46 1.36 1.30 1.35 1.42 1.39
1.21 1.23 1.18 1.19 1.21 1.26 1.31 1.33 1.35 1.42 1.45 1.43 1.27 1.00 0.73 0.65 0.70 0.88 0.95 1.00 1.06 1.06 1.06 1.06 1.12 1.15 1.16 1.17 1.20 1.20 1.22 1.26 1.27 1.27 1.33 1.37 1.39 1.40 1.32 1.29 1.29 1.35 1.31
1.05 1.01 0.93 0.96 1.07 1.13 1.19 1.21 1.21 1.22 1.24 1.24 1.15 0.87 0.64 0.60 0.73 0.87 1.00 1.09 1.10 1.10 1.09 1.09 1.10 1.08 1.08 1.11 1.14 1.15 1.23 1.26 1.25 1.25 1.30 1.36 1.37 1.35 1.30 1.29 1.28 1.28 1.32
1.04 0.98 0.81 0.82 0.95 1.01 1.03 1.11 1.09 1.07 1.08 1.11 1.02 0.79 0.68 0.67 0.80 0.94 1.09 1.13 1.10 1.07 1.03 1.04 1.03 1.02 1.00 1.02 1.09 1.15 1.22 1.24 1.22 1.21 1.24 1.27 1.29 1.28 1.27 1.27 1.29 1.33 1.35
0.90 0.93 0.81 0.77 0.87 0.87 0.92 1.10 1.13 1.11 1.10 1.09 0.94 0.82 0.79 0.87 0.97 1.08 1.18 1.17 1.09 1.04 1.02 1.01 0.99 0.95 0.89 0.90 0.94 1.01 1.12 1.17 1.13 1.12 1.17 1.17 1.18 1.16 1.13 1.13 1.17 1.25 1.29
0.68 0.79 0.73 0.68 0.72 0.81 0.92 1.06 1.14 1.12 1.11 1.11 0.98 0.87 0.87 0.94 1.01 1.07 1.12 1.08 1.01 1.01 1.00 0.95 0.89 0.84 0.83 0.89 0.93 0.89 0.87 0.87 0.86 0.90 0.98 1.01 1.07 1.11 1.09 1.06 1.12 1.17 1.26
0.64 0.73 0.67 0.59 0.60 0.70 0.85 0.99 1.06 1.05 1.03 1.00 0.91 0.83 0.83 0.89 0.94 0.93 0.90 0.89 0.86 0.86 0.81 0.80 0.81 0.79 0.75 0.68 0.68 0.67 0.68 0.66 0.62 0.65 0.77 0.88 0.92 1.01 1.08 1.11 1.17 1.26 1.29
0.60 0.67 0.65 0.56 0.54 0.62 0.77 0.90 0.98 1.02 1.03 0.99 0.93 0.89 0.90 0.91 0.86 0.81 0.80 0.79 0.78 0.77 0.74 0.71 0.69 0.65 0.63 0.59 0.55 0.56 0.55 0.52 0.50 0.54 0.60 0.70 0.81 0.93 1.00 1.04 1.07 1.17 1.24